Location: Keeble Observatory
(37.7625°N, 77.4755°W)
Time: 20:09:36
(UTC-04:00)

Daily predictions for brighter satellites

Satellite Brightness Start Highest point End
(mag) Time Altitude Azimuth Time Altitude Azimuth Time Altitude Azimuth
SJ-6B 2.8 19:47:07 10° SSE 19:50:47 55° ENE 19:54:27 10° N
Tiangong 1 2.3 19:48:41 10° WNW 19:51:19 29° N 19:53:56 10° ENE
Cosmos 1437 Rocket 3.4 19:49:28 10° SSE 19:53:06 36° E 19:56:48 10° NNE
METEOR-M 4.3 19:49:34 10° SSE 19:54:54 83° WSW 20:00:17 10° NNW
ALOS 2.4 19:54:19 10° SSE 19:58:53 57° ENE 20:03:28 10° N
SeaSat 1 2.4 19:56:03 10° SSE 20:00:57 80° ENE 20:05:54 10° NNW
Cosmos 405 2.9 19:58:40 10° S 20:02:11 73° E 20:05:42 10° NNE
Lacrosse 5 2.6 19:57:48 10° S 20:02:14 31° ESE 20:06:40 10° ENE
Cosmos 1821 Rocket 4.1 19:59:10 10° S 20:05:24 60° E 20:11:40 10° NNE
Cosmos 1535 Rocket 4.5 20:05:58 10° S 20:12:06 67° E 20:18:22 10° NNE
FengYun 1-2 T 4.2 20:08:54 10° SSE 20:14:25 74° ENE 20:20:01 10° N
Cosmos 1844 Rocket 2.7 20:08:55 10° SSW 20:14:34 90° W 20:20:15 10° NNE
Resurs 01 Rocket 1.7 20:12:24 10° SSE 20:16:42 56° ENE 20:21:02 10° N
Cosmos 1953 3.8 20:19:45 17° E 20:19:51 17° E 20:22:32 10° NE
Cosmos 2278 Rocket 2.5 20:15:57 10° S 20:21:13 41° ESE 20:26:31 10° NE
BREEZE-M DEB (TANK) 2.6 20:19:35 10° SW 20:22:06 72° SE 20:27:45 10° NE
Cosmos 1812 Rocket 3.5 20:18:08 10° S 20:22:32 70° E 20:26:56 10° NNE
Cosmos 1605 Rocket 4.3 20:17:29 10° SSE 20:23:18 44° E 20:29:15 10° NNE
CZ-2C R/B 1.7 20:23:56 10° NNE 20:25:16 29° ENE 20:25:16 29° ENE
Meteor 1-24 Rocket 3.6 20:27:31 10° N 20:32:58 71° E 20:38:36 10° SSE
Cosmos 1378 3.1 20:29:13 10° N 20:33:00 90° WSW 20:36:45 10° S
H-2A R/B 2.7 20:29:11 10° SSE 20:33:02 89° NE 20:36:58 10° NNW
Cosmos 2150 Rocket 4.1 20:28:38 10° SSW 20:33:46 78° WNW 20:38:56 10° NNE
Meteor 2-5 Rocket 4.2 20:29:30 10° NNW 20:35:09 64° W 20:40:53 10° S
Spot 2 Rocket 3.4 20:30:25 10° SSE 20:35:30 84° ENE 20:40:39 10° NNW
FENGYUN 3A 4.1 20:31:05 10° S 20:36:27 65° W 20:41:50 10° NNW
SAR-Lupe-4 3.8 20:35:51 25° SE 20:37:33 45° ENE 20:41:00 10° N
Cosmos 2123 Rocket 4.0 20:31:17 10° N 20:37:34 65° E 20:43:47 10° SSE
CZ-3 Stage 3 4.1 19:44:45 10° WSW 20:39:22 64° S 20:45:16 23° ESE
Cosmos 1707 4.1 20:36:31 10° NNW 20:40:13 41° W 20:43:52 10° SSW
Delta 2 Rocket 3.5 20:38:04 10° W 20:42:37 65° S 20:44:17 33° ESE
USA 215 3.2 20:36:30 10° NE 20:43:03 74° SE 20:49:33 10° SW
RESURS DK-1 2.7 20:41:26 10° N 20:45:25 45° ENE 20:46:34 35° ESE
Cosmos 1076 Rocket 4.3 20:43:35 10° NNE 20:47:14 30° ENE 20:47:14 30° ENE
Cosmos 1766 3.4 20:45:48 10° SSW 20:49:39 72° W 20:53:32 10° N
Cosmos 2082 Rocket 3.4 20:48:09 10° N 20:52:42 24° ENE 20:53:24 23° ENE
Envisat 3.3 20:51:33 31° ESE 20:53:23 44° ENE 20:58:12 10° N
Cosmos 990 Rocket 4.3 20:48:48 10° SSW 20:54:01 68° WNW 20:59:16 10° NNE
COSMOS 2406 4.2 20:51:19 10° NW 20:56:48 47° WSW 21:02:13 10° S
SAR-Lupe-1 3.9 20:56:01 49° SE 20:56:50 71° ENE 21:00:25 10° N
Cosmos 1125 Rocket 3.8 20:53:25 10° S 20:58:16 42° ESE 21:03:09 10° NNE
SJ-11-01 4.4 21:03:47 45° ESE 21:04:38 52° ENE 21:09:14 10° N
Cosmos 1544 2.9 21:04:09 46° S 21:05:09 83° E 21:08:49 10° N
Helios 1A 2.9 21:04:20 29° S 21:06:24 82° WSW 21:10:35 10° NNW
Meteor 1-21 Rocket 4.4 21:03:40 10° N 21:09:22 54° ENE 21:10:58 42° SE
Helios 1B rocket 2.7 21:06:39 10° N 21:10:46 68° WNW 21:14:50 10° SSW
USA 267 4.4 21:11:56 23° ENE 21:14:24 29° NNE 21:19:51 10° NNW
Cosmos 1818 4.1 21:10:33 10° NNW 21:15:40 40° NE 21:15:57 39° ENE
CZ-3B DEB 3.6 21:04:54 10° WSW 21:15:46 51° NW 21:20:47 10° NNE
Cosmos 1447 Rocket 4.3 21:11:32 10° N 21:17:41 74° E 21:20:33 33° SSE
Lacrosse 4 Rocket 4.1 21:18:38 10° W 21:21:29 18° NW 21:24:22 10° N
Cosmos 2344 4.3 21:15:08 10° SW 21:22:37 56° NW 21:31:02 10° NNE
ERS-1 Rocket 3.5 21:23:35 43° NE 21:23:35 43° NE 21:27:43 10° N
SL-27 R/B 3.6 21:20:21 10° NNW 21:23:43 41° WSW 21:24:08 39° WSW
Meteor 1-29 3.8 21:21:05 10° N 21:24:26 49° WNW 21:25:08 41° WSW
Cosmos 1459 Rocket 4.0 21:24:01 52° ESE 21:24:39 54° E 21:30:41 10° NNE
Cosmos 2173 Rocket 4.0 21:25:17 53° E 21:25:27 53° E 21:31:28 10° NNE
Tiangong 1 3.4 21:24:35 10° WNW 21:25:53 23° WNW 21:25:53 23° WNW
Cosmos 1805 4.2 21:24:16 10° SSW 21:28:01 47° W 21:31:49 10° N
Cosmos 2098 Rocket 4.3 21:22:29 10° S 21:29:16 83° W 21:36:55 10° N
Cosmos 1269 Rocket 4.2 21:28:56 10° N 21:33:32 55° NE 21:33:32 55° NE
Cosmos 1408 Rocket 4.3 21:32:57 10° N 21:36:11 47° N 21:36:11 47° N
Cosmos 468 4.5 21:39:19 10° NNW 21:44:32 76° WSW 21:44:36 75° WSW
Lacrosse 5 3.0 21:40:19 10° WSW 21:45:05 41° NW 21:47:58 21° NNE
SPOT 5 4.4 21:49:19 30° NNE 21:49:19 30° NNE 21:52:17 10° N
Cosmos 1939 Rocket 4.1 21:50:45 40° WNW 21:50:45 40° WNW 21:53:51 10° NNW
GP-B 4.4 21:53:45 35° WSW 21:54:21 37° W 21:58:30 10° NNW
Cosmos 1953 4.2 21:55:18 28° W 21:56:02 29° WNW 21:59:38 10° NNW
Cosmos 2278 Rocket 4.2 22:00:41 10° WSW 22:05:24 27° WNW 22:10:10 10° N
Cosmos 2100 Rocket 4.3 22:04:49 46° SW 22:06:39 65° W 22:12:58 10° N
Cosmos 1833 Rocket 3.3 22:04:21 10° NNW 22:08:28 51° NNW 22:08:28 51° NNW
H-2A R/B 4.1 22:17:09 19° NNE 22:17:09 19° NNE 22:18:48 10° N
H-2A R/B (2) 4.2 22:13:57 10° WSW 22:15:05 18° SW 22:15:05 18° SW
Cosmos 1802 Rocket 4.5 22:23:38 55° NW 22:23:38 55° NW 22:28:54 10° N
Cosmos 2082 Rocket 3.5 22:31:34 10° NW 22:35:17 36° WNW 22:35:17 36° WNW
USA 267 4.2 22:59:17 42° NW 22:59:17 42° NW 23:03:24 10° NW
